User: anonymous   Login
Location: Unspecified
(0.0000°N, 0.0000°E)
Time: 19:52:44
(UTC+00:00)
Language:

IRVINE01 - Orbit

View from above orbital plane
View from above orbital plane
View from above satellite
View from above satellite

Ground track
Ground track

The orbit data is extracted from the following two-line orbital elements,

1 43693U 18088D   21020.18699433  .00002710  00000-0  10893-3 0  9992
2 43693  85.0350 293.4128 0015491 206.2219 153.8241 15.24312377121844
Epoch (UTC): 20 January 2021 04:29:16
Eccentricity: 0.0015491
inclination: 85.0350°
perigee height: 482 km
apogee height: 503 km
right ascension of ascending node: 293.4128°
argument of perigee: 206.2219°
revolutions per day: 15.24312377
mean anomaly at epoch: 153.8241°
orbit number at epoch: 12184

The dashed part of the orbit path shows where the satellite is in the earth's shadow,  

DLR